Newark, NJ

7:00 AM EDT on May 26, 2017 (GMT -0400)
Newark International

Weather History for KEWR - August, 2014

Change the Weather History Date:

Monday, August 4, 2014

  Actual Average Record
Temperature  
Mean Temperature 78 °F 77 °F  
Max Temperature 86 °F 85 °F 100 °F (1993)
Min Temperature 69 °F 69 °F 58 °F (1945)
Degree Days  
Heating Degree Days 0 0  
Month to date heating degree days 0 0  
Since 1 June heating degree days 0 17  
Since 1 July heating degree days 0 0  
Cooling Degree Days 13 12  
Month to date cooling degree days 40 48  
Year to date cooling degree days 729 746  
Since 1 June cooling degree days 667 670  
Growing Degree Days 28 (Base 50)    
Moisture  
Dew Point 66 °F    
Average Humidity 69    
Maximum Humidity 90    
Minimum Humidity 47    
Precipitation  
Precipitation 0.00 in 0.15 in 2.48 in (2003)
Month to date precipitation 0.58 0.61  
Year to date precipitation 33.44 28.28  
Snow  
Snow 0.00 in 0.00 in 0.00 in (2002)
Month to date snowfall 0.0 0.0  
Since 1 July snowfall 0.0 0.0  
Snow Depth 0.00 in    
Sea Level Pressure  
Sea Level Pressure 30.04 in    
Wind  
Wind Speed 6 mph (WSW)    
Max Wind Speed 14 mph    
Max Gust Speed 18 mph    
Visibility 10 miles    
Events      
T = Trace of Precipitation, MM = Missing Value Source: NWS Daily Summary

Daily Weather History Graph

Daily Weather History Graph

Search for Another Location

Airport or City:

Trip Planner

Search our weather history database for the weather conditions in past years. The results will help you decide how hot, cold, wet, or windy it might be!

Date:

Astronomy

Aug. 04, 2014 Rise Set
Actual Time 5:56 AM EDT 8:08 PM EDT
Civil Twilight 5:25 AM EDT 8:38 PM EDT
Nautical Twilight 4:48 AM EDT 9:16 PM EDT
Astronomical Twilight 4:07 AM EDT 9:57 PM EDT
Moon 2:17 PM EDT (8/4) 12:01 AM EDT (8/4)
Length of Visible Light 15h 13m
Length of Day
14h 12m
First Quarter, 57% of the Moon is Illuminated
Aug 4
First Quarter
Aug 10
Full
Aug 17
Last Quarter
Aug 25
New
Sep 2
First Quarter

Hourly Weather History & Observations

Time (EDT) Temp. Heat Index Dew Point Humidity Pressure Visibility Wind Dir Wind Speed Gust Speed Precip Events Conditions
12:51 AM 71.1 °F - 66.0 °F 84% 30.06 in 10.0 mi SW 3.5 mph - N/A   Overcast
1:51 AM 71.6 °F - 66.2 °F 83% 30.05 in 10.0 mi South 5.8 mph - N/A   Overcast
2:51 AM 71.6 °F - 66.2 °F 83% 30.05 in 10.0 mi SW 3.5 mph - N/A   Overcast
3:51 AM 71.1 °F - 64.9 °F 81% 30.04 in 10.0 mi SW 5.8 mph - N/A   Overcast
4:51 AM 70.0 °F - 66.0 °F 87% 30.05 in 10.0 mi West 5.8 mph - N/A   Overcast
5:30 AM 69.8 °F - 66.2 °F 88% 30.05 in 10.0 mi WSW 5.8 mph - N/A   Overcast
5:51 AM 69.8 °F - 66.2 °F 88% 30.05 in 10.0 mi West 3.5 mph - N/A   Overcast
6:32 AM 69.8 °F - 68.0 °F 94% 30.05 in 10.0 mi Variable 3.5 mph - N/A   Overcast
6:51 AM 70.0 °F - 66.9 °F 90% 30.05 in 10.0 mi West 3.5 mph - N/A   Mostly Cloudy
7:00 AM 69.8 °F - 66.2 °F 88% 30.05 in 10.0 mi West 3.5 mph - N/A   Scattered Clouds
7:15 AM 71.6 °F - 68.0 °F 88% 30.05 in 10.0 mi Variable 3.5 mph - N/A   Mostly Cloudy
7:51 AM 72.0 °F - 66.9 °F 84% 30.06 in 10.0 mi West 9.2 mph - N/A   Mostly Cloudy
7:57 AM 71.6 °F - 66.2 °F 83% 30.06 in 10.0 mi West 6.9 mph - N/A   Scattered Clouds
8:51 AM 75.2 °F - 66.2 °F 73% 30.06 in 10.0 mi WSW 3.5 mph - N/A   Scattered Clouds
9:51 AM 79.0 °F - 66.0 °F 64% 30.06 in 10.0 mi WSW 6.9 mph - N/A   Scattered Clouds
10:51 AM 80.1 °F 81.9 °F 64.9 °F 60% 30.07 in 10.0 mi WSW 3.5 mph - N/A   Scattered Clouds
11:51 AM 82.9 °F 84.6 °F 64.9 °F 54% 30.06 in 10.0 mi WNW 4.6 mph - N/A   Scattered Clouds
12:51 PM 82.0 °F 83.4 °F 64.0 °F 54% 30.05 in 10.0 mi NW 6.9 mph - N/A   Mostly Cloudy
1:51 PM 82.9 °F 84.0 °F 63.0 °F 51% 30.04 in 10.0 mi West 8.1 mph - N/A   Mostly Cloudy
2:51 PM 86.0 °F 87.3 °F 64.0 °F 48% 30.04 in 10.0 mi WSW 8.1 mph - N/A   Mostly Cloudy
3:51 PM 82.9 °F 85.4 °F 66.9 °F 58% 30.03 in 10.0 mi SSE 9.2 mph - N/A   Mostly Cloudy
4:51 PM 82.0 °F 85.5 °F 69.1 °F 65% 30.02 in 10.0 mi SSE 9.2 mph - N/A   Mostly Cloudy
5:51 PM 81.0 °F 84.1 °F 69.1 °F 67% 30.01 in 10.0 mi SSE 6.9 mph - N/A   Scattered Clouds
6:51 PM 82.0 °F 84.5 °F 66.9 °F 60% 30.01 in 10.0 mi SSW 6.9 mph - N/A   Scattered Clouds
7:51 PM 82.9 °F 83.3 °F 61.0 °F 47% 30.02 in 10.0 mi West 8.1 mph - N/A   Mostly Cloudy
8:51 PM 81.0 °F 82.2 °F 63.0 °F 54% 30.04 in 10.0 mi West 6.9 mph - N/A   Mostly Cloudy
10:51 PM 78.1 °F - 64.0 °F 62% 30.04 in 10.0 mi SW 5.8 mph - N/A   Scattered Clouds
11:51 PM 77.0 °F - 64.0 °F 64% 30.04 in 10.0 mi WSW 4.6 mph - N/A   Partly Cloudy